Hlavní strana
METAR-TAF:

METAR-TAF

Letiště :

Flemingsburg, Kentucky, Spojené státy americké

zeměpisná šířka: 38-32-30N, zeměpisná délka: 083-44-36W, výška: 278 m

Aktuální stav počasí

Zpráva byla vytvořena před 21 minutami, v 01:35 UTC
Západní vítr 3 kt
Teplota 6°C
Vlhkost vzduchu 100%
Tlak 1014 hPa
Viditelnost: 16.1 km
Polojasno ve výšce 3700 ft
Zataženo ve výšce 7000 ft

METAR: KFGX 200135Z AUTO 27003KT 10SM SCT037 OVC070 06/06 A2994 RMK AO2 T00570057

Čas: 20:56 (01:56 UTC)


TAF: chybějící

Stav a předpovědi počasí z více než 4 000 letišť (zprávy METAR a TAF).

Červené a žluté tečky na mapě představují dostupné meteorologické stanice.

Když kurzor umístíte na tečku, zobrazí se název stanice.

Pak kliknutím zobrazíte stav a předpověď počasí.

Chcete-li změnit mapu, kliknutím na zelené tlačítko se znaménkem +mapu přiblížíte, kliknutím na zelené tlačítko se znaménkem – mapu oddálíte a kliknutím na zelené šipky přejdete na sousední mapy.


METAR-TAF: